星链-5946 (STARLINK-5946 )

导读

STARLINK-5946是美国SpaceX公司星链(Starlink)项目的卫星,于2023年3月24日发射升空。作为星链星座的组成部分,它旨在为全球提供高速低延迟互联网覆盖,尤其服务偏远地区与网络基础设施薄弱区域,该卫星入轨后扩充了星链星座规模,推进了全球卫星互联网组网进程。

基本信息
目录编号:
55990
目录名称:
STARLINK-5946
国际标识:
2023-042E
轨道中心:
EARTH
卫星名称:
星链-5946
卫星全名:
星链-5946 (STARLINK-5946 )
卫星状态:
在轨 (已飞行1179 天)
发射日期:
2023-03-24 UTC
国别 :
美国 (US)
星等 :
--
轨道信息
数据来源 国际轨道数据
星历时间: 2026-06-15T04:49:21+0800
3小时前
查看轨道信息
半长轴: 6861.199km
偏心率: 0.000131
轨道倾角: 42.998°
近地点辐角 273.448°
升交点赤经 230.624°
平近点角 86.622°
近地点: 482.163km
远地点: 483.961km
周期: 94.267分钟
每日圈数: 15.275758
详细信息
固有亮度:
5
最大亮度:
2.5
卫星平台:
Starlink v1.5
覆盖范围:
全球
运营商:
太空探索技术公司
运营商所在国:
美国
制造商(研发单位):
太空探索技术公司
制造商所在国:
美国
使用方式:
暂无
卫星简介
星链(Starlink)计划是由太空探索技术公司(SpaceX)提出的一个巨型低轨卫星互联网星座项目,计划在2019年至2024年间在太空搭建由约1.2万颗卫星组成的“星链”网络,其中1584颗将部署在地球上空550千米处的近地轨道,并从2020年开始工作。该卫星仍在工作。
2D轨道图
3D轨道图
轨道高度分析图
轨道倾角分析图
轨道综合分析图
查看轨道综合分析图